Regional Weather Roundup
Issued by NWS Northern Indiana

Home | Current Version | Previous Version | Graphics & Text | Print | Product List | Glossary On
Versions: 1 2 3 4 5 6 7 8 9 10 11 12 13 14 15 16 17 18 19 20 21 22 23 24 25 26 27 28 29 30 31 32 33 34 35 36 37 38 39 40 41 42 43 44 45 46 47 48 49 50
000
ASUS43 KIWX 250500
RWRIWX

KIWX WEATHER ROUNDUP
NATIONAL WEATHER SERVICE NORTHERN INDIANA
100 AM EDT MON MAY 25 2015

NOTE: "FAIR" INDICATES FEW OR NO CLOUDS BELOW 12,000 FEET WITH NO
SIGNIFICANT WEATHER AND/OR OBSTRUCTIONS TO VISIBILITY.

* THESE STATIONS ARE NOT UNDER NWS QUALITY CONTROL. THEY ALSO MAY NOT
  REPORT WEATHER SUCH AS PRECIPITATION OR FOG.

INZ001>027-250600-
NORTHERN INDIANA

CITY           SKY/WX    TMP DP  RH WIND       PRES   REMARKS
SOUTH BEND     CLEAR     74  56  53 S13       29.99F
GOSHEN         CLEAR     72  55  55 S15       30.01S
ANGOLA*        CLEAR     72  55  56 S10       30.04F
FORT WAYNE     PTCLDY    71  55  56 S13       30.06S

$$
INZ028>050-250600-
CENTRAL INDIANA

CITY           SKY/WX    TMP DP  RH WIND       PRES   REMARKS
LAFAYETTE      PTCLDY    73  60  63 S10G20    29.99F
KOKOMO*        CLEAR     72  55  56 S14       30.03F
MUNCIE*        PTCLDY    73  55  53 S9        30.07S
INDIANAPOLIS   MOCLDY    72  58  61 SE12      30.03F

$$
MIZ043>046-050>051-056>058-064>065-071>073-077>080-250600-
SOUTHWEST LOWER MICHIGAN

CITY           SKY/WX    TMP DP  RH WIND       PRES   REMARKS
BATTLE CREEK   PTCLDY    73  54  51 S16       30.01F
BENTON HARBOR  PTCLDY    72  57  59 S8        29.96S
COLDWATER*     CLEAR     73  52  47 S8        30.03S
HILLSDALE*     CLEAR     71  52  52 S8        30.05F
HOLLAND        PTCLDY    69  56  62 SE8       29.96F
GRAND RAPIDS   CLOUDY    65  57  75 SE7       29.98F
KALAMAZOO      PTCLDY    72  54  53 S10       30.00S
STURGIS*       CLEAR     72  54  53 S13G18    30.02S
THREE RIVERS*  FAIR      71  54  53 S10G16    30.01S

$$
OHZ001>008-015>018-024>025-250600-
NORTHWEST OHIO

CITY           SKY/WX    TMP DP  RH WIND       PRES   REMARKS
DEFIANCE       PTCLDY    73  52  47 S9        30.06F
FINDLAY        CLEAR     69  50  50 S12       30.08F
TOLEDO EXPRESS CLEAR     70  50  49 S8        30.06F
TOLEDO METCALF PTCLDY    68  50  52 S10       30.07F
LIMA           CLEAR     68  50  52 S9        30.10F

$$
AND FOR LAKE MICHIGAN COASTAL AND OPEN LAKE BUOY OBSERVATIONS

STATION/POSITION TEMP    WIND        PRES    VSBY  WAVE
                 AIR SEA DIR/SP/G                  HT/PER
                 (F)     (DEG/KT/KT) (MB)    (MI)  (FT/S)
CALUMET HARBOR    76     170/ 12/ 17   N/A
MICHIGAN CITY     76     160/ 13/ 17   N/A
BURNS HARBOR      75     180/ 13/ 20 1014.6S
SAINT JOSEPH      75     170/  4/  8 1014.9F
SOUTH LAKE BUOY   49 38  170/ 14/ 16 1013.7F         1
4 MI NW BRIDGMAN  67 54  200/ 12/ 14   N/A           1/ 2
MICHIGAN CITY     69 54  190/ 12/ 17   N/A           1/ 2

$$
&&



USA.gov is the U.S. government's official web portal to all federal, state and local government web resources and services.